Regional Weather Roundup
Issued by NWS

Home | Current Version | Previous Version | Graphics & Text | Print | Product List | Glossary Off
Versions: 1 2 3 4 5 6 7 8 9 10 11 12 13 14 15 16 17 18 19 20 21 22 23 24 25 26 27 28 29 30 31 32 33 34 35 36 37 38 39 40 41 42 43 44 45 46 47 48 49 50

000
ASUS43 KLSX 040359
RWRMO

WEATHER SUMMARY FOR MISSOURI
NATIONAL WEATHER SERVICE SPRINGFIELD MO
1000 PM CST TUE MAR 03 2015

NOTE: "FAIR" INDICATES FEW OR NO CLOUDS BELOW 12,000 FEET WITH NO
       SIGNIFICANT WEATHER AND/OR OBSTRUCTIONS TO VISIBILITY.
       CURRENT SKY AND/OR WEATHER CONDITIONS ARE NOT AVAILABLE FOR
       CHILLICOTHE AND FARMINGTON.

MOZ001>031-035>038-043-044-053-054-040500-
...NORTHERN AND WESTERN MISSOURI...

CITY           SKY/WX    TMP DP  RH WIND       PRES   REMARKS
KANSAS CTY INT CLOUDY    31  23  72 N13       29.99R WCI  21
KANSAS C DTWN  CLOUDY    34  24  67 N13       29.98S WCI  25
LEE`S SUMMIT   CLOUDY    33  26  75 N12       29.97R WCI  24
ST JOSEPH      CLOUDY    29  19  66 N20       30.04R WCI  16
CHILLICOTHE      N/A     33  24  69 N9        30.01R WCI  25

$$
MOZ066>068-077>081-088>096-101>105-040500-
...SOUTHWEST MISSOURI...

CITY           SKY/WX    TMP DP  RH WIND       PRES   REMARKS
SPRINGFIELD    CLOUDY    42  40  92 CALM      29.89R
JOPLIN         CLOUDY    41  39  93 N10       29.91R

$$
MOZ032>034-039>042-045>050-055>058-069>072-040500-
...CENTRAL MISSOURI...

CITY           SKY/WX    TMP DP  RH WIND       PRES   REMARKS
COLUMBIA       CLOUDY    36  31  82 N15       29.93R WCI  27
JEFFERSON CITY CLOUDY    38  32  79 N9        29.94R
ROLLA          MIX PCPN  37  36  96 N5        29.90R FOG
SEDALIA        CLOUDY    35  28  75 N15       29.94R WCI  25
WHITEMAN AFB   CLOUDY    34  28  80 NE10      29.90F WCI  26
OSAGE BEACH    CLOUDY    37  34  87 N3        29.94R

$$
MOZ051-052-059>065-040500-
...EAST CENTRAL MISSOURI...

CITY           SKY/WX    TMP DP  RH WIND       PRES   REMARKS
ST LOUIS INTL  CLOUDY    39  35  86 N7        29.92R
SPIRIT OF STL  LGT RAIN  39  36  89 N8        29.92R
ST CHARLES     CLOUDY    38  34  85 N5        29.92R

$$
MOZ072>076-082>087-097>100-106>115-040500-
...SOUTH CENTRAL AND SOUTHEAST MISSOURI...

CITY           SKY/WX    TMP DP  RH WIND       PRES   REMARKS
CAPE GIRARDEAU LGT RAIN  41  41 100 CALM      29.90S VSB 1
FARMINGTON     CLOUDY    43  39  87 CALM      29.93R
POPLAR BLUFF   LGT RAIN  40  39  97 N6        29.88S VSB 1/2
WEST PLAINS    CLOUDY    43  41  93 N6        29.89F FOG

$$



USA.gov is the U.S. government's official web portal to all federal, state and local government web resources and services.